SL-14 R/B, 15100

Orbit data source: Space-Track

SL-14 R/B, 15100 is space debris in LEO originally from a launch on Thu, 05 Jul 1984 UTC launched from the Plesetsk Missile And Space Complex (PKMTR). Debris objects in space refer to the collection of defunct objects orbiting the Earth. Examples of debris include non-operational satellites, rocket bodies, and fragments generated from explosions, collisions, or faulty payload assembly.

Loading next visibility...
Identifier
15100, 1984-072B
Orbit
LEO
Country
Flag of CISCIS
Related business
Manufacturer
Yuzhnoe
Mission
Spacecraft
Bus & Motor
S5M, Unknown motor
Mass
1,600 kg wet, 1,600 kg dry
Launch date (UTC)
1984-07-05 (41 years ago)
Launch vehicle
Unknown
Launch site
Plesetsk Missile And Space Complex (PKMTR)
Object type
Payload
Rocket body
Debris
Shape & HBR
Cyl, 1.4 m
Radar Cross Section
7.351 m², Large (>1 m²)

Expand to show TLE details & history
Last TLE update: 12 hours ago

TLE from 12 hours ago
0 SL-14 R/B
1 15100U 84072B   25260.95562528  .00000053  00000-0  34156-4 0  9996
2 15100  82.5258 261.8627 0012373 157.6677 202.5025 13.84542345 81808
Epoch: 2025-09-17T22:56Z
TLE epoch observation values (Epoch: 2025-09-17T22:56:06.024Z)
Latitude
0.00003°
Longitude
-79.28654°
Altitude
959.099 km
Speed
7.368 km/s
True Right ascension
17h 27m 27s
True Declination
0° 00' 00"
Sunlit
Object was in daylight at epoch
Visualization orbit readout
Latitude
Unknown
Longitude
Unknown
Altitude
Unknown
Speed
Unknown
Apparent Right ascension
Unknown
Apparent Declination
Unknown
Sunlit
N/A
Visualization observer readout
Local Sidereal Time
03:27:25
Azimuth
Unknown
Elevation
Unknown
Doppler factor
Unknown
Orbital elements
Apogee altitude
954.033 km
Perigee altitude
935.911 km
Semi-major axis
7,323.109 km
Eccentricity
0.00124
Inclination
82.5258°
RAAN
261.8627°
Arg. of periapsis
157.6677°
True anomaly
202.44831°
Mean anomaly
202.5025°
Eccentric anomaly
202.4754°
Mean motion
3.46338 °/min
Orbital period
103.94 mins
BSTAR
0.000034156
Loading maneuver chart data...
Computing Atmospheric mass density...
Loading historical data...
Loading historical data...
Loading historical data...
Loading historical data...
Loading historical data...
Loading historical data...
Loading historical data...

Documentation

Showing up to 5 results
|